Lake Travis Weather Center

Moon Phase Calendar



Lake Travis Water Level
Online Cameras

 


      

Current Conditions in Lago Vista
2/7/2023 9:05:57 PM

52°F
Feels Like 52
Clouds
Humidity
90%
Pressure
30.03"
Wind
11.5 mph (NW)
Dew Point
50°F
UV Index
0/10 (Low)
Visibility
6 mi

Hourly Forecast

Date & Time Tue, Feb 7
9:00 PM
Tue, Feb 7
10:00 PM
Tue, Feb 7
11:00 PM
Wed, Feb 8
12:00 AM
Wed, Feb 8
1:00 AM
Wed, Feb 8
2:00 AM
Wed, Feb 8
3:00 AM
Wed, Feb 8
4:00 AM
Wed, Feb 8
5:00 AM
Wed, Feb 8
6:00 AM
Wed, Feb 8
7:00 AM
Wed, Feb 8
8:00 AM
Wed, Feb 8
9:00 AM
Wed, Feb 8
10:00 AM
Wed, Feb 8
11:00 AM
Wed, Feb 8
12:00 PM
Wed, Feb 8
1:00 PM
Wed, Feb 8
2:00 PM
Wed, Feb 8
3:00 PM
Wed, Feb 8
4:00 PM
Wed, Feb 8
5:00 PM
Wed, Feb 8
6:00 PM
Wed, Feb 8
7:00 PM
Wed, Feb 8
8:00 PM
Wed, Feb 8
9:00 PM
Wed, Feb 8
10:00 PM
Wed, Feb 8
11:00 PM
Thu, Feb 9
12:00 AM
Thu, Feb 9
1:00 AM
Thu, Feb 9
2:00 AM
Thu, Feb 9
3:00 AM
Thu, Feb 9
4:00 AM
Thu, Feb 9
5:00 AM
Thu, Feb 9
6:00 AM
Thu, Feb 9
7:00 AM
Thu, Feb 9
8:00 AM
Thu, Feb 9
9:00 AM
Thu, Feb 9
10:00 AM
Thu, Feb 9
11:00 AM
Thu, Feb 9
12:00 PM
Thu, Feb 9
1:00 PM
Thu, Feb 9
2:00 PM
Thu, Feb 9
3:00 PM
Thu, Feb 9
4:00 PM
Thu, Feb 9
5:00 PM
Thu, Feb 9
6:00 PM
Thu, Feb 9
7:00 PM
Thu, Feb 9
8:00 PM
Condition
Clouds

Clouds

Clouds

Rain

Rain

Rain

Clouds

Clouds

Rain

Rain

Rain

Rain

Rain

Rain

Rain

Rain

Clouds

Clouds

Clouds

Clouds

Clouds

Clouds

Clear

Clear

Clear

Clear

Clear

Clear

Clear

Clear

Clear

Clear

Clear

Clear

Clear

Clear

Clear

Clear

Clear

Clear

Clear

Clear

Clear

Clear

Clear

Clear

Clouds

Clouds
Temperature 52°F53°F53°F52°F51°F51°F50°F50°F50°F50°F50°F50°F49°F51°F50°F49°F48°F50°F58°F61°F60°F54°F52°F51°F50°F50°F49°F49°F48°F48°F47°F47°F47°F46°F46°F47°F52°F58°F64°F67°F68°F69°F70°F69°F67°F61°F58°F56°F
Feels Like 52°F52°F52°F52°F51°F50°F49°F46°F49°F49°F46°F45°F44°F50°F44°F44°F43°F45°F57°F59°F58°F52°F50°F48°F48°F48°F48°F47°F46°F46°F45°F45°F44°F43°F43°F45°F50°F56°F61°F65°F66°F67°F68°F67°F65°F59°F56°F54°F
Cloudiness 100%100%100%100%100%100%100%100%100%100%100%100%100%100%100%100%100%99%98%75%60%50%0%0%0%0%0%0%0%0%0%0%0%0%0%0%0%0%1%2%0%0%0%0%0%1%37%18%
Visibility 6 mi6 mi6 mi6 mi6 mi6 mi6 mi6 mi6 mi6 mi6 mi6 mi6 mi4 mi6 mi6 mi6 mi6 mi6 mi6 mi6 mi6 mi6 mi6 mi6 mi6 mi6 mi6 mi6 mi6 mi6 mi6 mi6 mi6 mi6 mi6 mi6 mi6 mi6 mi6 mi6 mi6 mi6 mi6 mi6 mi6 mi6 mi6 mi
Precipitation 80%80%80%100%81%81%84%72%96%96%75%88%91%100%100%100%43%36%36%24%20%20%0%0%0%0%0%0%0%0%0%0%0%0%0%0%0%0%0%0%0%0%0%0%0%0%0%0%
Humidity 90%91%92%93%93%93%93%92%93%93%93%93%94%94%92%89%88%84%64%56%53%60%60%60%59%58%56%55%55%55%54%54%54%57%58%59%54%44%38%35%34%33%33%36%44%52%57%56%
Dew Point 50°F50°F50°F50°F50°F48°F48°F47°F48°F48°F48°F47°F47°F49°F47°F46°F45°F45°F46°F45°F43°F41°F38°F37°F36°F35°F34°F33°F32°F32°F32°F31°F31°F31°F31°F33°F36°F37°F38°F38°F39°F39°F39°F41°F44°F43°F42°F41°F
Pressure 30.03"30.03"30.03"30.03"30.03"30.03"30"30"30"30"30.03"30.06"30.09"30.09"30.12"30.12"30.12"30.09"30.06"30.03"30.03"30.03"30.06"30.09"30.09"30.09"30.09"30.09"30.09"30.09"30.09"30.06"30.06"30.09"30.09"30.12"30.12"30.09"30.09"30.06"30.03"30"30"29.97"30"30"30.03"30.09"
Wind Speed 11 mph9.8 mph9 mph10.5 mph9.6 mph10.2 mph9.8 mph9.5 mph9.5 mph9.2 mph11.5 mph12.7 mph13.2 mph12.6 mph13.6 mph12.4 mph13 mph11.5 mph13.9 mph12.2 mph9.2 mph5 mph3.7 mph3.3 mph3.8 mph4 mph3.8 mph3.6 mph4.2 mph4.4 mph5 mph4.8 mph5.4 mph5.8 mph5.1 mph5 mph4.4 mph8.2 mph9.4 mph10.4 mph10.9 mph10.9 mph10.1 mph8.9 mph7.2 mph5.8 mph4.5 mph11.4 mph
Wind
Direction
333°
NNW
338°
NNW
337°
NNW
339°
NNW
341°
NNW
341°
NNW
341°
NNW
349°
N
341°
NNW
332°
NNW
321°
NW
318°
NW
307°
NW
302°
WNW
306°
NW
308°
NW
306°
NW
308°
NW
306°
NW
305°
NW
301°
WNW
306°
NW
290°
WNW
258°
WSW
234°
SW
249°
WSW
253°
WSW
232°
SW
214°
SW
224°
SW
220°
SW
222°
SW
224°
SW
232°
SW
239°
WSW
242°
WSW
248°
WSW
245°
WSW
244°
WSW
241°
WSW
239°
WSW
237°
WSW
227°
SW
214°
SW
198°
SSW
189°
S
204°
SSW
346°
NNW

Daily Forecast

Date High Low Precip. Humidity
Today
Feb 7

Rain
68 °F
52 °F
100%
89%
Wednesday
Feb 8

Rain
61 °F
48 °F
100%
89%
Thursday
Feb 9

Clear
70 °F
46 °F
0%
35%
Friday
Feb 10

Clear
52 °F
42 °F
0%
46%
Saturday
Feb 11

Clear
56 °F
36 °F
0%
41%
Sunday
Feb 12

Clouds
54 °F
39 °F
0%
52%
Monday
Feb 13

Rain
63 °F
47 °F
88%
74%
Tuesday
Feb 14

Rain
69 °F
54 °F
100%
47%
Wednesday
Feb 15

Clouds
73 °F
51 °F
17%
40%
Thursday
Feb 16

Clear
52 °F
37 °F
6%
36%
Friday
Feb 17

Clear
54 °F
35 °F
0%
31%
Saturday
Feb 18

Rain
50 °F
41 °F
39%
63%
Sunday
Feb 19

Rain
59 °F
49 °F
95%
91%
Monday
Feb 20

Rain
68 °F
60 °F
46%
97%
Tuesday
Feb 21

Rain
69 °F
57 °F
93%
40%
Wednesday
Feb 22

Rain
74 °F
56 °F
34%
95%

Temperature 8-14 Day Outlook



Precipitation 8-14 Day Outlook






About Us
Contact Us
Site Map
Search Site
Advertise With Us
   
Travis.USLakes.info
THE LAKE TRAVIS WEBSITE

Copyright 2023, Lakes Online
Privacy    |    Legal